Terminal Aerodrome Forecast
Issued by NWS

Current Version | Previous Version | Graphics & Text | Print | Product List | Glossary On
Versions: 1 2 3 4 5 6 7 8 9 10 11 12 13 14 15 16 17 18 19 20 21 22 23 24 25 26 27 28 29 30 31 32 33 34 35 36 37
000
FTUS41 KRNK 282322
TAFLWB
TAF
KLWB 282322Z 2900/2924 00000KT P6SM VCSH SCT060 BKN100
     FM290300 00000KT 4SM BR SCT035 BKN090
     FM290700 00000KT 2SM BR BKN015
     FM290900 00000KT 1/4SM FG VV001
     FM291400 VRB03KT 2SM BR VV007
     FM291600 25003KT P6SM SCT015 BKN025
     FM291800 24003KT P6SM SCT025 BKN050=

USA.gov is the U.S. government's official web portal to all federal, state and local government web resources and services.